Location: Krakow
(50.0830°N, 19.9170°E)
Time: 20:00:21
(UTC+02:00)

BlueWalker 3 - Visible Passes

Search period start: 01 October 2023 00:00
Search period end: 11 October 2023 00:00
Orbit: 491 x 508 km, 53.2° (Epoch: 01 October)

Date Brightness Start Highest point End Pass type
(mag) Time Alt. Az. Time Alt. Az. Time Alt. Az.
01 Oct 3.9 03:39:24 26° E 03:39:24 26° E 03:41:15 10° E visible
01 Oct 2.2 05:14:03 26° W 05:15:51 48° SSW 05:19:34 10° SE visible
02 Oct 4.8 03:19:09 13° E 03:19:09 13° E 03:19:38 10° E visible
02 Oct 2.1 04:53:48 45° WSW 04:54:15 47° SSW 04:57:58 10° SE visible
03 Oct 2.8 04:33:41 36° SSE 04:33:41 36° SSE 04:36:20 10° SE visible
03 Oct 4.1 06:09:51 10° WSW 06:10:18 10° SW 06:10:45 10° SW visible
04 Oct 4.2 04:13:44 17° SE 04:13:44 17° SE 04:14:42 10° SE visible
04 Oct 4.1 05:48:24 10° SW 05:48:40 10° SW 05:49:00 10° SW visible
08 Oct 4.4 19:46:41 10° S 19:46:44 10° S 19:46:44 10° S visible
09 Oct 3.8 19:24:57 10° S 19:26:36 15° SE 19:26:36 15° SE visible
10 Oct 3.7 19:03:12 10° S 19:05:30 15° SE 19:06:18 15° ESE visible
10 Oct 4.0 20:39:36 10° SW 20:40:56 20° SW 20:40:56 20° SW visible
